logo
Search for airport 
image banner adimage banner adimage banner ad
image banner ad

OERT - Ras Tanura

Located in , Saudi Arabia

ICAO - OERT, IATA -

Data provided by Airmate  

General information

Coordinates: N26°43'24" E50°1'54"
Elevation is 9 feet MSL.
 
View others Airports in Ash Sharqiyah

Operational data

Special qualification required
Current time UTC:
Current local time:
METAR: OEDF 202200Z 13006KT CAVOK 24/18 Q1007 NOSIG
TAF: TAF OEDF 201500Z 2018/2124 15015KT 8000 FEW040 BKN100 PROB30 TEMPO 2109/2114 VRB25KT 5000 TSRA FEW035CB
View NOTAMs / SUP AIP / TFR affecting this airport [VIEW]
Communications frequencies: [VIEW]

Runways:

RWY identifierQFULength (ft)Width (ft)SurfaceLDA (ft)
15152°705098ASP
33332°705098ASP

Airport contact information

Address: Saudi Arabia

Satellite view of OERT